星链-3333 (STARLINK-3333 )

导读 | 豆包AI

STARLINK-3333是美国SpaceX公司星链(Starlink)星座的成员卫星,于2022年1月6日发射入轨。星链是全球规模最大的低轨卫星互联网星座,旨在为全球提供高速低延迟宽带服务,覆盖偏远地区、航海航空等场景,同时也具备军事应用潜力。该卫星属于星链组网建设的一部分,推动了星座全球覆盖进程,但星链大规模部署也带来太空碎片、天文干扰等争议问题。

基本信息
目录编号:
50805
目录名称:
STARLINK-3333
国际标识:
2022-001C
轨道中心:
EARTH
卫星名称:
星链-3333
卫星全名:
星链-3333 (STARLINK-3333 )
卫星状态:
在轨 (已飞行1528 天)
发射日期:
2022-01-06 UTC
国别 :
美国 (US)
星等 :
--
轨道信息
数据来源 国际轨道数据 AOE轨道数据
星历时间 2026-03-14T15:43:43+0800
12小时前
查看轨道信息
2026-03-14T07:00:00+0800
21小时前
查看轨道信息
半长轴 6917.65km 6917.794km
偏心率 0.0000546 0.0001235
轨道倾角 53.217° 53.215°
近地点辐角 60.758° 108.942°
升交点赤经 138.330° 139.949°
平近点角 299.347° 74.594°
近地点 539.135km 538.802km
远地点 539.891km 540.512km
周期 95.433分钟 95.436分钟
每日圈数 15.089157 15.088683
详细信息
固有亮度:
5
最大亮度:
2.5
卫星平台:
Starlink v1.5
覆盖范围:
全球
运营商:
太空探索技术公司
运营商所在国:
美国
制造商(研发单位):
太空探索技术公司
制造商所在国:
美国
使用方式:
暂无
卫星简介
星链(Starlink)计划是由太空探索技术公司(SpaceX)提出的一个巨型低轨卫星互联网星座项目,计划在2019年至2024年间在太空搭建由约1.2万颗卫星组成的“星链”网络,其中1584颗将部署在地球上空550千米处的近地轨道,并从2020年开始工作。该卫星仍在工作。
2D轨道图
3D轨道图
轨道高度分析图
轨道倾角分析图
轨道综合分析图
查看轨道综合分析图